San Diego, CA

5:46 PM PST on December 05, 2016 (GMT -0800)
San Diego International-Lindbergh

Weather History for KSAN - October, 2011

Change the Weather History Date:

Friday, October 28, 2011

  Actual Average Record
Temperature  
Mean Temperature 65 °F 65 °F  
Max Temperature 76 °F 72 °F 92 °F (1879)
Min Temperature 54 °F 58 °F 47 °F (1874)
Degree Days  
Heating Degree Days 0 1  
Month to date heating degree days 17 11  
Since 1 July heating degree days 17 13  
Cooling Degree Days 0 1  
Month to date cooling degree days 47 68  
Year to date cooling degree days 567 704  
Growing Degree Days 15 (Base 50)    
Moisture  
Dew Point 42 °F    
Average Humidity 37    
Maximum Humidity 61    
Minimum Humidity 13    
Precipitation  
Precipitation 0.00 in 0.02 in 0.60 in (1956)
Month to date precipitation 0.46 0.49  
Year to date precipitation 5.10 7.72  
Since 1 July precipitation 0.59  
Snow  
Snow 0.00 in - - ()
Month to date snowfall 0.0  
Year to date snowfall 0.0  
Snow Depth 0.00 in    
Sea Level Pressure  
Sea Level Pressure 30.04 in    
Wind  
Wind Speed 4 mph (NW)    
Max Wind Speed 16 mph    
Max Gust Speed 20 mph    
Visibility 10 miles    
Events      
T = Trace of Precipitation, MM = Missing Value Source: NWS Daily Summary

Daily Weather History Graph

Daily Weather History Graph

Search for Another Location

Airport or City:

Trip Planner

Search our weather history database for the weather conditions in past years. The results will help you decide how hot, cold, wet, or windy it might be!

Date:

Astronomy

Oct. 28, 2011 Rise Set
Actual Time 7:02 AM PDT 6:01 PM PDT
Civil Twilight 6:37 AM PDT 6:26 PM PDT
Nautical Twilight 6:08 AM PDT 6:55 PM PDT
Astronomical Twilight 5:39 AM PDT 7:24 PM PDT
Moon 9:14 AM PDT (10/28) 7:39 PM PDT (10/28)
Length of Visible Light 11h 49m
Length of Day
10h 58m
Waxing Crescent, 6% of the Moon is Illuminated
Oct 28
Waxing Crescent
Nov 2
First Quarter
Nov 10
Full
Nov 18
Last Quarter
Nov 24
New

Hourly Weather History & Observations

Time (PDT) Temp. Dew Point Humidity Pressure Visibility Wind Dir Wind Speed Gust Speed Precip Events Conditions
12:51 AM 59.0 °F 42.1 °F 53% 30.04 in 10.0 mi Calm Calm - N/A   Partly Cloudy
1:51 AM 59.0 °F 39.0 °F 48% 30.03 in 10.0 mi Calm Calm - N/A   Clear
2:51 AM 55.9 °F 39.9 °F 55% 30.01 in 10.0 mi Calm Calm - N/A   Clear
3:51 AM 55.9 °F 37.0 °F 49% 30.00 in 10.0 mi NNW 3.5 mph - N/A   Clear
4:51 AM 55.0 °F 37.0 °F 51% 30.01 in 10.0 mi Calm Calm - N/A   Clear
5:51 AM 55.0 °F 35.1 °F 47% 30.03 in 10.0 mi Calm Calm - N/A   Clear
6:51 AM 55.0 °F 34.0 °F 45% 30.04 in 10.0 mi Calm Calm - N/A   Partly Cloudy
7:51 AM 57.0 °F 32.0 °F 39% 30.06 in 10.0 mi North 3.5 mph - N/A   Scattered Clouds
8:51 AM 61.0 °F 32.0 °F 34% 30.07 in 10.0 mi Calm Calm - N/A   Scattered Clouds
9:51 AM 66.0 °F 36.0 °F 33% 30.07 in 10.0 mi Calm Calm - N/A   Scattered Clouds
10:51 AM 72.0 °F 30.9 °F 22% 30.06 in 10.0 mi Calm Calm - N/A   Mostly Cloudy
11:51 AM 75.9 °F 21.9 °F 13% 30.06 in 10.0 mi Variable 5.8 mph - N/A   Mostly Cloudy
12:51 PM 73.9 °F 34.0 °F 23% 30.04 in 10.0 mi West 9.2 mph - N/A   Mostly Cloudy
1:51 PM 72.0 °F 37.0 °F 28% 30.02 in 10.0 mi WNW 12.7 mph - N/A   Mostly Cloudy
2:51 PM 72.0 °F 37.0 °F 28% 30.00 in 10.0 mi NW 12.7 mph 19.6 mph N/A   Mostly Cloudy
3:51 PM 69.1 °F 52.0 °F 54% 30.00 in 10.0 mi WNW 10.4 mph - N/A   Mostly Cloudy
4:51 PM 69.1 °F 55.9 °F 63% 30.00 in 10.0 mi WNW 8.1 mph - N/A   Mostly Cloudy
5:51 PM 66.0 °F 57.0 °F 73% 30.01 in 9.0 mi WNW 6.9 mph - N/A   Mostly Cloudy
6:51 PM 64.9 °F 55.0 °F 70% 30.04 in 10.0 mi WNW 3.5 mph - N/A   Scattered Clouds
7:51 PM 64.0 °F 55.9 °F 75% 30.05 in 8.0 mi NW 3.5 mph - N/A   Partly Cloudy
8:51 PM 64.0 °F 53.1 °F 67% 30.06 in 8.0 mi Calm Calm - N/A   Partly Cloudy
9:51 PM 63.0 °F 53.1 °F 70% 30.07 in 9.0 mi Calm Calm - N/A   Partly Cloudy
10:51 PM 62.1 °F 51.1 °F 67% 30.06 in 8.0 mi Calm Calm - N/A   Mostly Cloudy
11:51 PM 62.1 °F 51.1 °F 67% 30.06 in 8.0 mi Calm Calm - N/A   Mostly Cloudy